"read_dt","SO2 (ppb)","flags","PMT voltage (V)","lamp voltage (V)","lamp intensity (Hz)","internal temp (C)","react chamber temp (C)","sample flow (l/min)","pres (mmHg)","SO2 bkg (ppb)","SO2 coefficient"
2014-09-24 00:00:00,1909E-3,5C000000,-0724,0827,12202,026.9,045.4,0.477,730.8,01.19,0.508
2014-09-24 00:01:00,1824E-3,5C000000,-0724,0826,12053,026.9,045.4,0.477,730.8,01.19,0.508
2014-09-24 00:02:00,1837E-3,5C000000,-0724,0826,12254,026.9,045.4,0.477,730.8,01.19,0.508
2014-09-24 00:03:00,1951E-3,5C000000,-0724,0826,12300,026.8,045.4,0.477,730.8,01.19,0.508
2014-09-24 00:04:00,1967E-3,5C000000,-0724,0826,12191,026.8,045.4,0.477,730.8,01.19,0.508
2014-09-24 00:05:00,1831E-3,5C000000,-0724,0826,12465,026.8,045.4,0.477,730.8,01.19,0.508
2014-09-24 00:06:00,1926E-3,5C000000,-0724,0826,12181,026.8,045.4,0.477,730.8,01.19,0.508
2014-09-24 00:07:00,1707E-3,5C000000,-0724,0826,12118,026.8,045.4,0.477,730.8,01.19,0.508
2014-09-24 00:08:00,1906E-3,5C000000,-0724,0826,12291,026.8,045.4,0.478,730.8,01.19,0.508
2014-09-24 00:09:00,1713E-3,5C000000,-0724,0826,12253,026.8,045.5,0.477,730.8,01.19,0.508
2014-09-24 00:10:00,1838E-3,5C000000,-0724,0826,11938,026.8,045.5,0.477,730.8,01.19,0.508
2014-09-24 00:11:00,1853E-3,5C000000,-0724,0826,12226,026.8,045.4,0.477,730.8,01.19,0.508
2014-09-24 00:12:00,1922E-3,5C000000,-0724,0825,12324,026.7,045.4,0.477,730.8,01.19,0.508
2014-09-24 00:13:00,1722E-3,5C000000,-0724,0826,12076,026.8,045.4,0.477,730.8,01.19,0.508
2014-09-24 00:14:00,1859E-3,5C000000,-0724,0826,12337,026.7,045.4,0.478,730.8,01.19,0.508
2014-09-24 00:15:00,1892E-3,5C000000,-0724,0825,12144,026.7,045.4,0.477,730.8,01.19,0.508
2014-09-24 00:16:00,1675E-3,5C000000,-0724,0825,12259,026.7,045.4,0.477,730.8,01.19,0.508
2014-09-24 00:17:00,1900E-3,5C000000,-0724,0826,12206,026.7,045.4,0.477,730.8,01.19,0.508
2014-09-24 00:18:00,1870E-3,5C000000,-0724,0826,12168,026.7,045.4,0.477,730.8,01.19,0.508
2014-09-24 00:19:00,1812E-3,5C000000,-0724,0826,12154,026.7,045.4,0.478,730.8,01.19,0.508
2014-09-24 00:20:00,1861E-3,5C000000,-0724,0827,12376,026.7,045.4,0.478,730.8,01.19,0.508
2014-09-24 00:21:00,1885E-3,5C000000,-0724,0825,12231,026.7,045.4,0.477,730.8,01.19,0.508
2014-09-24 00:22:00,1729E-3,5C000000,-0724,0826,12411,026.6,045.4,0.477,730.8,01.19,0.508
2014-09-24 00:23:00,1794E-3,5C000000,-0724,0826,12104,026.6,045.4,0.477,730.8,01.19,0.508
2014-09-24 00:24:00,1930E-3,5C000000,-0724,0826,12368,026.6,045.4,0.477,730.8,01.19,0.508
2014-09-24 00:25:00,1836E-3,5C000000,-0724,0826,11840,026.6,045.4,0.477,730.8,01.19,0.508
2014-09-24 00:26:00,1825E-3,5C000000,-0724,0827,12375,026.6,045.4,0.478,730.8,01.19,0.508
2014-09-24 00:27:00,1771E-3,5C000000,-0724,0825,12185,026.6,045.4,0.478,730.8,01.19,0.508
2014-09-24 00:28:00,1883E-3,5C000000,-0724,0826,12117,026.6,045.4,0.477,730.8,01.19,0.508
2014-09-24 00:29:00,1748E-3,5C000000,-0724,0825,12239,026.6,045.4,0.477,730.8,01.19,0.508
2014-09-24 00:30:00,1881E-3,5C000000,-0724,0825,11848,026.6,045.4,0.477,730.8,01.19,0.508
2014-09-24 00:31:00,1730E-3,5C000000,-0724,0826,12262,026.6,045.4,0.477,730.8,01.19,0.508
2014-09-24 00:32:00,1863E-3,5C000000,-0724,0826,12066,026.6,045.4,0.477,730.8,01.19,0.508
2014-09-24 00:33:00,1836E-3,5C000000,-0724,0826,12224,026.5,045.4,0.478,730.8,01.19,0.508
2014-09-24 00:34:00,1863E-3,5C000000,-0724,0826,12286,026.5,045.4,0.478,730.8,01.19,0.508
2014-09-24 00:35:00,1844E-3,5C000000,-0724,0825,12152,026.5,045.4,0.478,730.8,01.19,0.508
2014-09-24 00:36:00,1929E-3,5C000000,-0724,0825,12190,026.5,045.4,0.477,730.8,01.19,0.508
2014-09-24 00:37:00,1782E-3,5C000000,-0724,0826,12072,026.5,045.4,0.477,730.8,01.19,0.508
2014-09-24 00:38:00,1809E-3,5C000000,-0724,0825,12172,026.5,045.4,0.477,730.8,01.19,0.508
2014-09-24 00:39:00,1982E-3,5C000000,-0724,0827,12186,026.5,045.4,0.477,730.9,01.19,0.508
2014-09-24 00:40:00,1867E-3,5C000000,-0724,0825,12163,026.5,045.4,0.478,730.8,01.19,0.508
2014-09-24 00:41:00,1790E-3,5C000000,-0724,0826,12086,026.5,045.4,0.478,730.9,01.19,0.508
2014-09-24 00:42:00,1836E-3,5C000000,-0724,0826,12189,026.5,045.4,0.478,730.8,01.19,0.508
2014-09-24 00:43:00,1807E-3,5C000000,-0724,0826,12249,026.5,045.4,0.478,730.9,01.19,0.508
2014-09-24 00:44:00,1786E-3,5C000000,-0724,0826,12310,026.5,045.4,0.478,730.9,01.19,0.508
2014-09-24 00:45:00,1913E-3,5C000000,-0724,0826,12224,026.5,045.4,0.477,730.9,01.19,0.508
2014-09-24 00:46:00,1767E-3,5C000000,-0724,0826,12230,026.4,045.4,0.477,730.9,01.19,0.508
2014-09-24 00:47:00,1894E-3,5C000000,-0724,0826,12266,026.4,045.4,0.477,730.9,01.19,0.508
2014-09-24 00:48:00,1864E-3,5C000000,-0724,0826,12141,026.4,045.4,0.478,730.9,01.19,0.508
2014-09-24 00:49:00,1755E-3,5C000000,-0724,0826,12316,026.4,045.4,0.478,730.9,01.19,0.508
2014-09-24 00:50:00,1903E-3,5C000000,-0724,0826,12209,026.4,045.4,0.478,730.8,01.19,0.508
2014-09-24 00:51:00,1930E-3,5C000000,-0724,0826,12359,026.4,045.4,0.478,730.9,01.19,0.508
2014-09-24 00:52:00,2014E-3,5C000000,-0724,0826,12348,026.4,045.4,0.478,730.8,01.19,0.508
2014-09-24 00:53:00,1914E-3,5C000000,-0724,0826,12354,026.4,045.4,0.478,730.9,01.19,0.508
2014-09-24 00:54:00,1839E-3,5C000000,-0724,0825,12292,026.4,045.4,0.477,730.8,01.19,0.508
2014-09-24 00:55:00,2018E-3,5C000000,-0724,0826,12395,026.4,045.4,0.477,730.9,01.19,0.508
2014-09-24 00:56:00,1885E-3,5C000000,-0724,0826,12139,026.4,045.4,0.478,730.9,01.19,0.508
2014-09-24 00:57:00,1782E-3,5C000000,-0724,0825,12270,026.4,045.4,0.478,730.9,01.19,0.508
2014-09-24 00:58:00,1930E-3,5C000000,-0724,0826,12173,026.4,045.4,0.478,730.9,01.19,0.508
2014-09-24 00:59:00,2014E-3,5C000000,-0724,0827,12284,026.4,045.4,0.478,730.9,01.19,0.508
2014-09-24 01:00:00,1769E-3,5C000000,-0724,0825,12286,026.4,045.4,0.478,730.9,01.19,0.508
2014-09-24 01:01:00,1813E-3,5C000000,-0724,0826,12311,026.4,045.4,0.478,730.9,01.19,0.508
2014-09-24 01:02:00,1952E-3,5C000000,-0724,0826,12128,026.4,045.4,0.478,730.9,01.19,0.508
2014-09-24 01:03:00,1930E-3,5C000000,-0724,0826,12358,026.4,045.4,0.477,730.9,01.19,0.508
2014-09-24 01:04:00,1936E-3,5C000000,-0724,0826,12274,026.3,045.4,0.477,730.9,01.19,0.508
2014-09-24 01:05:00,1868E-3,5C000000,-0724,0827,12011,026.3,045.4,0.478,730.9,01.19,0.508
2014-09-24 01:06:00,1868E-3,5C000000,-0724,0826,12314,026.3,045.4,0.478,730.9,01.19,0.508
2014-09-24 01:07:00,1870E-3,5C000000,-0724,0826,12306,026.3,045.4,0.478,730.9,01.19,0.508
2014-09-24 01:08:00,1932E-3,5C000000,-0724,0825,12051,026.3,045.4,0.478,730.9,01.19,0.508
2014-09-24 01:09:00,1924E-3,5C000000,-0724,0826,12231,026.3,045.4,0.478,730.9,01.19,0.508
2014-09-24 01:10:00,1670E-3,5C000000,-0724,0825,12297,026.4,045.4,0.478,730.9,01.19,0.508
2014-09-24 01:11:00,1918E-3,5C000000,-0724,0826,12147,026.3,045.4,0.478,730.9,01.19,0.508
2014-09-24 01:12:00,1792E-3,5C000000,-0724,0826,12112,026.3,045.4,0.478,730.9,01.19,0.508
2014-09-24 01:13:00,2004E-3,5C000000,-0724,0826,12210,026.3,045.5,0.478,730.9,01.19,0.508
2014-09-24 01:14:00,1713E-3,5C000000,-0724,0826,12278,026.3,045.4,0.478,730.8,01.19,0.508
2014-09-24 01:15:00,1904E-3,5C000000,-0724,0826,12098,026.2,045.4,0.478,730.9,01.19,0.508
2014-09-24 01:16:00,1907E-3,5C000000,-0724,0826,12289,026.2,045.4,0.478,730.9,01.19,0.508
2014-09-24 01:17:00,1837E-3,5C000000,-0724,0826,12090,026.2,045.4,0.478,730.9,01.19,0.508
2014-09-24 01:18:00,1865E-3,5C000000,-0724,0825,12147,026.2,045.4,0.478,730.9,01.19,0.508
2014-09-24 01:19:00,1769E-3,5C000000,-0724,0828,12408,026.2,045.4,0.478,730.9,01.19,0.508
2014-09-24 01:20:00,2070E-3,5C000000,-0724,0827,12283,026.2,045.4,0.478,730.9,01.19,0.508
2014-09-24 01:21:00,1914E-3,5C000000,-0724,0826,12221,026.1,045.4,0.478,730.9,01.19,0.508
2014-09-24 01:22:00,1917E-3,5C000000,-0724,0825,12294,026.1,045.4,0.479,730.9,01.19,0.508
2014-09-24 01:23:00,1876E-3,5C000000,-0724,0825,12227,026.1,045.4,0.479,730.9,01.19,0.508
2014-09-24 01:24:00,1865E-3,5C000000,-0724,0826,12542,026.1,045.4,0.479,730.9,01.19,0.508
2014-09-24 01:25:00,1925E-3,5C000000,-0724,0825,12268,026.1,045.4,0.478,730.9,01.19,0.508
2014-09-24 01:26:00,1823E-3,5C000000,-0724,0825,12333,026.1,045.4,0.478,730.9,01.19,0.508
2014-09-24 01:27:00,1770E-3,5C000000,-0724,0826,12325,026.1,045.4,0.478,730.9,01.19,0.508
2014-09-24 01:28:00,1801E-3,5C000000,-0724,0825,12200,026.1,045.4,0.478,730.9,01.19,0.508
2014-09-24 01:29:00,1808E-3,5C000000,-0724,0827,12217,026.1,045.4,0.479,730.9,01.19,0.508
2014-09-24 01:30:00,1920E-3,5C000000,-0724,0825,12335,026.1,045.4,0.479,730.9,01.19,0.508
2014-09-24 01:31:00,1849E-3,5C000000,-0724,0826,12362,026.1,045.4,0.478,730.9,01.19,0.508
2014-09-24 01:32:00,1795E-3,5C000000,-0724,0827,12326,026.2,045.4,0.478,730.9,01.19,0.508
2014-09-24 01:33:00,1873E-3,5C000000,-0724,0826,12163,026.1,045.4,0.479,730.8,01.19,0.508
2014-09-24 01:34:00,1901E-3,5C000000,-0724,0826,12414,026.1,045.4,0.478,730.8,01.19,0.508
2014-09-24 01:35:00,1951E-3,5C000000,-0724,0825,12254,026.2,045.4,0.478,730.8,01.19,0.508
2014-09-24 01:36:00,1842E-3,5C000000,-0724,0825,12195,026.1,045.4,0.478,730.8,01.19,0.508
2014-09-24 01:37:00,1793E-3,5C000000,-0724,0826,12207,026.1,045.4,0.479,730.8,01.19,0.508
2014-09-24 01:38:00,1713E-3,5C000000,-0724,0825,12303,026.1,045.4,0.478,730.8,01.19,0.508
2014-09-24 01:39:00,1858E-3,5C000000,-0724,0825,12259,026.1,045.4,0.478,730.8,01.19,0.508
2014-09-24 01:40:00,1896E-3,5C000000,-0724,0826,12409,026.1,045.4,0.478,730.8,01.19,0.508
2014-09-24 01:41:00,1920E-3,5C000000,-0724,0825,12257,026.1,045.4,0.478,730.8,01.19,0.508
2014-09-24 01:42:00,1764E-3,5C000000,-0724,0827,12143,026.1,045.4,0.478,730.8,01.19,0.508
2014-09-24 01:43:00,1931E-3,5C000000,-0724,0826,12369,026.1,045.4,0.478,730.8,01.19,0.508
2014-09-24 01:44:00,1847E-3,5C000000,-0724,0826,12157,026.1,045.4,0.479,730.8,01.19,0.508
2014-09-24 01:45:00,1828E-3,5C000000,-0724,0826,12095,026.1,045.4,0.478,730.8,01.19,0.508
2014-09-24 01:46:00,1875E-3,5C000000,-0724,0826,12118,026.1,045.4,0.478,730.8,01.19,0.508
2014-09-24 01:47:00,1737E-3,5C000000,-0724,0826,12354,026.1,045.4,0.478,730.9,01.19,0.508
2014-09-24 01:48:00,1798E-3,5C000000,-0724,0826,12342,026.1,045.4,0.479,730.9,01.19,0.508
2014-09-24 01:49:00,1849E-3,5C000000,-0724,0826,12258,026.1,045.4,0.478,730.9,01.19,0.508
2014-09-24 01:50:00,1882E-3,5C000000,-0724,0827,12326,026.1,045.4,0.478,730.9,01.19,0.508
2014-09-24 01:51:00,1921E-3,5C000000,-0724,0826,12116,026.1,045.4,0.478,730.8,01.19,0.508
2014-09-24 01:52:00,1911E-3,5C000000,-0724,0826,12114,026.1,045.4,0.478,730.9,01.19,0.508
2014-09-24 01:53:00,1813E-3,5C000000,-0724,0825,12202,026.1,045.4,0.478,730.8,01.19,0.508
2014-09-24 01:54:00,1779E-3,5C000000,-0724,0825,12150,026.1,045.4,0.478,730.8,01.19,0.508
2014-09-24 01:55:00,1922E-3,5C000000,-0724,0826,12212,026.1,045.4,0.479,730.8,01.19,0.508
2014-09-24 01:56:00,1843E-3,5C000000,-0724,0826,12243,026.1,045.4,0.478,730.8,01.19,0.508
2014-09-24 01:57:00,1994E-3,5C000000,-0724,0826,12279,026.1,045.4,0.478,730.8,01.19,0.508
2014-09-24 01:58:00,1868E-3,5C000000,-0724,0825,12323,026.1,045.4,0.478,730.8,01.19,0.508
2014-09-24 01:59:00,1998E-3,5C000000,-0724,0826,12150,026.1,045.4,0.478,730.8,01.19,0.508
2014-09-24 02:00:00,1734E-3,5C000000,-0724,0825,12294,026.1,045.4,0.478,730.8,01.19,0.508
2014-09-24 02:01:00,1834E-3,5C000000,-0724,0827,12245,026.1,045.4,0.478,730.8,01.19,0.508
2014-09-24 02:02:00,1714E-3,5C000000,-0724,0825,12337,026.1,045.4,0.479,730.8,01.19,0.508
2014-09-24 02:03:00,1872E-3,5C000000,-0724,0826,12298,026.1,045.4,0.478,730.8,01.19,0.508
2014-09-24 02:04:00,1911E-3,5C000000,-0724,0825,12287,026.1,045.4,0.478,730.8,01.19,0.508
2014-09-24 02:05:00,1821E-3,5C000000,-0724,0826,12299,026.1,045.4,0.478,730.8,01.19,0.508
2014-09-24 02:06:00,1779E-3,5C000000,-0724,0825,12150,026.1,045.4,0.478,730.8,01.19,0.508
2014-09-24 02:07:00,1796E-3,5C000000,-0724,0826,12215,026.1,045.4,0.478,730.8,01.19,0.508
2014-09-24 02:08:00,1763E-3,5C000000,-0724,0826,12323,026.1,045.4,0.478,730.8,01.19,0.508
2014-09-24 02:09:00,1840E-3,5C000000,-0724,0826,12188,026.1,045.4,0.478,730.8,01.19,0.508
2014-09-24 02:10:00,1833E-3,5C000000,-0724,0826,12225,026.1,045.4,0.478,730.8,01.19,0.508
2014-09-24 02:11:00,1718E-3,5C000000,-0724,0825,12352,026.1,045.4,0.478,730.8,01.19,0.508
2014-09-24 02:12:00,1793E-3,5C000000,-0724,0825,12343,026.1,045.4,0.478,730.9,01.19,0.508
2014-09-24 02:13:00,1797E-3,5C000000,-0724,0826,12249,026.1,045.4,0.478,730.8,01.19,0.508
2014-09-24 02:14:00,1795E-3,5C000000,-0724,0826,12293,026.1,045.4,0.478,730.8,01.19,0.508
2014-09-24 02:15:00,1768E-3,5C000000,-0724,0825,12253,026.1,045.4,0.478,730.9,01.19,0.508
2014-09-24 02:16:00,1733E-3,5C000000,-0724,0825,12350,026.1,045.4,0.478,730.9,01.19,0.508
2014-09-24 02:17:00,1785E-3,5C000000,-0724,0826,12229,026.1,045.4,0.478,730.9,01.19,0.508
2014-09-24 02:18:00,1711E-3,5C000000,-0724,0826,12337,026.1,045.4,0.478,730.9,01.19,0.508
2014-09-24 02:19:00,1924E-3,5C000000,-0724,0826,12327,026.1,045.4,0.478,730.9,01.19,0.508
2014-09-24 02:20:00,1882E-3,5C000000,-0724,0826,12281,026.1,045.4,0.478,730.9,01.19,0.508
2014-09-24 02:21:00,1947E-3,5C000000,-0724,0825,12298,026.1,045.4,0.478,730.9,01.19,0.508
2014-09-24 02:22:00,1669E-3,5C000000,-0724,0825,12120,026.1,045.4,0.478,730.9,01.19,0.508
2014-09-24 02:23:00,1909E-3,5C000000,-0724,0826,12311,026.1,045.4,0.478,730.9,01.19,0.508
2014-09-24 02:24:00,1905E-3,5C000000,-0724,0825,12233,026.1,045.4,0.478,730.9,01.19,0.508
2014-09-24 02:25:00,1806E-3,5C000000,-0724,0826,12194,026.1,045.4,0.478,730.9,01.19,0.508
2014-09-24 02:26:00,1942E-3,5C000000,-0724,0825,12126,026.1,045.4,0.478,730.9,01.19,0.508
2014-09-24 02:27:00,1756E-3,5C000000,-0724,0826,12189,026.1,045.4,0.478,730.9,01.19,0.508
2014-09-24 02:28:00,1899E-3,5C000000,-0724,0826,12115,026.1,045.4,0.478,730.9,01.19,0.508
2014-09-24 02:29:00,1906E-3,5C000000,-0724,0826,12453,026.1,045.4,0.478,730.9,01.19,0.508
2014-09-24 02:30:00,1862E-3,5C000000,-0724,0825,12295,026.1,045.4,0.478,730.9,01.19,0.508
2014-09-24 02:31:00,1868E-3,5C000000,-0724,0826,12237,026.1,045.4,0.478,730.9,01.19,0.508
2014-09-24 02:32:00,1896E-3,5C000000,-0724,0825,12389,026.1,045.4,0.478,730.9,01.19,0.508
2014-09-24 02:33:00,1777E-3,5C000000,-0724,0826,12273,026.1,045.4,0.478,731.0,01.19,0.508
2014-09-24 02:34:00,1859E-3,5C000000,-0724,0826,12186,026.1,045.4,0.478,730.9,01.19,0.508
2014-09-24 02:35:00,1713E-3,5C000000,-0724,0825,12339,026.1,045.4,0.478,730.9,01.19,0.508
2014-09-24 02:36:00,1842E-3,5C000000,-0724,0825,12211,026.1,045.4,0.478,730.9,01.19,0.508
2014-09-24 02:37:00,1773E-3,5C000000,-0724,0825,12165,026.1,045.4,0.478,730.9,01.19,0.508
2014-09-24 02:38:00,1915E-3,5C000000,-0724,0825,12248,026.0,045.4,0.478,730.9,01.19,0.508
2014-09-24 02:39:00,1782E-3,5C000000,-0724,0825,12186,026.0,045.4,0.478,730.9,01.19,0.508
2014-09-24 02:40:00,1787E-3,5C000000,-0724,0827,12379,026.0,045.4,0.478,730.9,01.19,0.508
2014-09-24 02:41:00,1865E-3,5C000000,-0724,0826,12267,026.0,045.4,0.478,730.9,01.19,0.508
2014-09-24 02:42:00,1775E-3,5C000000,-0724,0826,12270,026.0,045.4,0.478,730.9,01.19,0.508
2014-09-24 02:43:00,1796E-3,5C000000,-0724,0825,12250,026.0,045.4,0.478,730.9,01.19,0.508
2014-09-24 02:44:00,2007E-3,5C000000,-0724,0826,12411,026.0,045.4,0.478,730.9,01.19,0.508
2014-09-24 02:45:00,1747E-3,5C000000,-0724,0826,12249,026.0,045.4,0.478,730.9,01.19,0.508
2014-09-24 02:46:00,1895E-3,5C000000,-0724,0826,12396,026.0,045.4,0.478,730.9,01.19,0.508
2014-09-24 02:47:00,1751E-3,5C000000,-0724,0826,12259,026.0,045.4,0.478,730.9,01.19,0.508
2014-09-24 02:48:00,1802E-3,5C000000,-0724,0826,12174,026.0,045.4,0.478,730.9,01.19,0.508
2014-09-24 02:49:00,1839E-3,5C000000,-0724,0825,12268,026.0,045.4,0.478,730.9,01.19,0.508
2014-09-24 02:50:00,1841E-3,5C000000,-0724,0826,12314,026.0,045.4,0.478,730.9,01.19,0.508
2014-09-24 02:51:00,2050E-3,5C000000,-0724,0826,12286,026.0,045.4,0.478,730.9,01.19,0.508
2014-09-24 02:52:00,1976E-3,5C000000,-0724,0826,12343,026.0,045.4,0.478,730.9,01.19,0.508
2014-09-24 02:53:00,1917E-3,5C000000,-0724,0826,12062,026.0,045.4,0.478,730.9,01.19,0.508
2014-09-24 02:54:00,1877E-3,5C000000,-0724,0826,12407,026.0,045.4,0.478,730.9,01.19,0.508
2014-09-24 02:55:00,1793E-3,5C000000,-0724,0825,12221,026.0,045.4,0.478,730.9,01.19,0.508
2014-09-24 02:56:00,1837E-3,5C000000,-0724,0825,12098,026.0,045.4,0.478,730.9,01.19,0.508
2014-09-24 02:57:00,1752E-3,5C000000,-0724,0825,12289,026.0,045.4,0.478,730.9,01.19,0.508
2014-09-24 02:58:00,1810E-3,5C000000,-0724,0826,12325,026.0,045.4,0.478,730.9,01.19,0.508
2014-09-24 02:59:00,1891E-3,5C000000,-0724,0826,12437,026.0,045.4,0.478,730.9,01.19,0.508
2014-09-24 03:00:00,1782E-3,5C000000,-0724,0825,12289,026.0,045.4,0.478,730.9,01.19,0.508
2014-09-24 03:01:00,1787E-3,5C000000,-0724,0825,12118,026.0,045.4,0.478,730.9,01.19,0.508
2014-09-24 03:02:00,1855E-3,5C000000,-0724,0826,12357,026.0,045.4,0.478,730.9,01.19,0.508
2014-09-24 03:03:00,1843E-3,5C000000,-0724,0826,12232,026.0,045.4,0.478,730.9,01.19,0.508
2014-09-24 03:04:00,1918E-3,5C000000,-0724,0826,12225,026.0,045.4,0.478,730.9,01.19,0.508
2014-09-24 03:05:00,1826E-3,5C000000,-0724,0826,12396,026.0,045.4,0.478,730.9,01.19,0.508
2014-09-24 03:06:00,1918E-3,5C000000,-0724,0826,12198,026.0,045.4,0.478,730.9,01.19,0.508
2014-09-24 03:07:00,1870E-3,5C000000,-0724,0826,12238,025.9,045.4,0.478,730.9,01.19,0.508
2014-09-24 03:08:00,1840E-3,5C000000,-0724,0827,12098,025.9,045.4,0.478,730.9,01.19,0.508
2014-09-24 03:09:00,1909E-3,5C000000,-0724,0826,11998,025.9,045.4,0.478,730.9,01.19,0.508
2014-09-24 03:10:00,1787E-3,5C000000,-0724,0826,12271,025.9,045.4,0.478,731.0,01.19,0.508
2014-09-24 03:11:00,1811E-3,5C000000,-0724,0825,12155,025.9,045.4,0.478,730.9,01.19,0.508
2014-09-24 03:12:00,1862E-3,5C000000,-0724,0826,12245,025.9,045.4,0.478,730.9,01.19,0.508
2014-09-24 03:13:00,1820E-3,5C000000,-0724,0825,12152,025.9,045.4,0.478,730.9,01.19,0.508
2014-09-24 03:14:00,1762E-3,5C000000,-0724,0826,12339,025.9,045.4,0.478,730.9,01.19,0.508
2014-09-24 03:15:00,1923E-3,5C000000,-0724,0825,12231,025.9,045.4,0.479,730.9,01.19,0.508
2014-09-24 03:16:00,1836E-3,5C000000,-0724,0825,12164,025.9,045.4,0.479,730.9,01.19,0.508
2014-09-24 03:17:00,1854E-3,5C000000,-0724,0826,12278,025.9,045.4,0.479,731.0,01.19,0.508
2014-09-24 03:18:00,1876E-3,5C000000,-0724,0826,12306,025.9,045.4,0.478,731.0,01.19,0.508
2014-09-24 03:19:00,1959E-3,5C000000,-0724,0825,12253,025.9,045.4,0.478,730.9,01.19,0.508
2014-09-24 03:20:00,1953E-3,5C000000,-0724,0825,12284,025.9,045.4,0.478,730.9,01.19,0.508
2014-09-24 03:21:00,1906E-3,5C000000,-0724,0823,12326,025.9,045.4,0.478,730.9,01.19,0.508
2014-09-24 03:22:00,1724E-3,5C000000,-0724,0826,12265,025.9,045.4,0.478,731.0,01.19,0.508
2014-09-24 03:23:00,1924E-3,5C000000,-0724,0827,12303,025.9,045.4,0.478,730.9,01.19,0.508
2014-09-24 03:24:00,1903E-3,5C000000,-0724,0826,12157,025.9,045.4,0.478,730.9,01.19,0.508
2014-09-24 03:25:00,1792E-3,5C000000,-0724,0826,12382,025.9,045.4,0.478,730.9,01.19,0.508
2014-09-24 03:26:00,1858E-3,5C000000,-0724,0826,12269,025.9,045.4,0.478,730.9,01.19,0.508
2014-09-24 03:27:00,1760E-3,5C000000,-0724,0825,12321,025.9,045.4,0.478,731.0,01.19,0.508
2014-09-24 03:28:00,1780E-3,5C000000,-0724,0826,12291,025.9,045.4,0.479,730.9,01.19,0.508
2014-09-24 03:29:00,1821E-3,5C000000,-0724,0826,12241,025.9,045.4,0.479,730.9,01.19,0.508
2014-09-24 03:30:00,1889E-3,5C000000,-0724,0826,12234,025.9,045.4,0.478,730.9,01.19,0.508
2014-09-24 03:31:00,1684E-3,5C000000,-0724,0826,12135,025.9,045.4,0.478,730.9,01.19,0.508
2014-09-24 03:32:00,1707E-3,5C000000,-0724,0826,12261,025.9,045.4,0.478,730.9,01.19,0.508
2014-09-24 03:33:00,1877E-3,5C000000,-0724,0826,12137,025.9,045.5,0.478,731.0,01.19,0.508
2014-09-24 03:34:00,1865E-3,5C000000,-0724,0826,12308,025.9,045.4,0.478,730.9,01.19,0.508
2014-09-24 03:35:00,1674E-3,5C000000,-0724,0825,12084,025.9,045.4,0.478,730.9,01.19,0.508
2014-09-24 03:36:00,1731E-3,5C000000,-0724,0826,12382,025.9,045.4,0.478,730.9,01.19,0.508
2014-09-24 03:37:00,1888E-3,5C000000,-0724,0825,12116,025.9,045.4,0.478,730.9,01.19,0.508
2014-09-24 03:38:00,1892E-3,5C000000,-0724,0826,12302,025.9,045.4,0.479,730.9,01.19,0.508
2014-09-24 03:39:00,1944E-3,5C000000,-0724,0826,12151,025.9,045.4,0.479,730.9,01.19,0.508
2014-09-24 03:40:00,1890E-3,5C000000,-0724,0825,12324,025.9,045.4,0.478,730.9,01.19,0.508
2014-09-24 03:41:00,1808E-3,5C000000,-0724,0826,12302,025.9,045.4,0.478,730.9,01.19,0.508
2014-09-24 03:42:00,1876E-3,5C000000,-0724,0826,12008,025.9,045.4,0.478,730.9,01.19,0.508
2014-09-24 03:43:00,1898E-3,5C000000,-0724,0826,12287,025.9,045.4,0.478,730.9,01.19,0.508
2014-09-24 03:44:00,1906E-3,5C000000,-0724,0827,12290,025.9,045.4,0.478,730.8,01.19,0.508
2014-09-24 03:45:00,1783E-3,5C000000,-0724,0824,12193,025.9,045.4,0.478,730.8,01.19,0.508
2014-09-24 03:46:00,1832E-3,5C000000,-0724,0825,12338,025.9,045.4,0.478,730.8,01.19,0.508
2014-09-24 03:47:00,1849E-3,5C000000,-0724,0826,12273,025.9,045.4,0.479,730.8,01.19,0.508
2014-09-24 03:48:00,1871E-3,5C000000,-0724,0825,12287,025.9,045.4,0.479,730.8,01.19,0.508
2014-09-24 03:49:00,1821E-3,5C000000,-0724,0825,12162,025.9,045.4,0.478,730.8,01.19,0.508
2014-09-24 03:50:00,1836E-3,5C000000,-0724,0825,12265,025.9,045.4,0.478,730.8,01.19,0.508
2014-09-24 03:51:00,1863E-3,5C000000,-0724,0826,12390,025.9,045.4,0.478,730.9,01.19,0.508
2014-09-24 03:52:00,1922E-3,5C000000,-0724,0825,12189,025.9,045.4,0.478,730.8,01.19,0.508
2014-09-24 03:53:00,1815E-3,5C000000,-0724,0826,12378,025.9,045.4,0.478,730.9,01.19,0.508
2014-09-24 03:54:00,1773E-3,5C000000,-0724,0825,12153,025.9,045.4,0.478,730.9,01.19,0.508
2014-09-24 03:55:00,1872E-3,5C000000,-0724,0825,12185,025.9,045.4,0.479,730.9,01.19,0.508
2014-09-24 03:56:00,1878E-3,5C000000,-0724,0825,11987,025.9,045.4,0.479,730.8,01.19,0.508
2014-09-24 03:57:00,1965E-3,5C000000,-0724,0825,12353,025.9,045.4,0.478,730.8,01.19,0.508
2014-09-24 03:58:00,1791E-3,5C000000,-0724,0825,12027,025.9,045.4,0.478,730.8,01.19,0.508
2014-09-24 03:59:00,1755E-3,5C000000,-0724,0826,12153,025.9,045.4,0.478,730.9,01.19,0.508
2014-09-24 04:00:00,1849E-3,5C000000,-0724,0825,12105,025.9,045.4,0.478,730.9,01.19,0.508
2014-09-24 04:01:00,1893E-3,5C000000,-0724,0825,12262,025.9,045.4,0.478,730.9,01.19,0.508
2014-09-24 04:02:00,1864E-3,5C000000,-0724,0826,12190,025.9,045.4,0.478,730.9,01.19,0.508
2014-09-24 04:03:00,1723E-3,5C000000,-0724,0825,12245,025.9,045.4,0.479,730.9,01.19,0.508
2014-09-24 04:04:00,1690E-3,5C000000,-0724,0825,12091,025.9,045.4,0.479,730.9,01.19,0.508
2014-09-24 04:05:00,1868E-3,5C000000,-0724,0825,12185,025.9,045.4,0.478,730.9,01.19,0.508
2014-09-24 04:06:00,1829E-3,5C000000,-0724,0825,12147,025.8,045.4,0.478,730.9,01.19,0.508
2014-09-24 04:07:00,1725E-3,5C000000,-0724,0826,12290,025.9,045.4,0.478,730.9,01.19,0.508
2014-09-24 04:08:00,1843E-3,5C000000,-0724,0826,12239,025.9,045.4,0.478,730.9,01.19,0.508
2014-09-24 04:09:00,1845E-3,5C000000,-0724,0827,12194,025.9,045.4,0.478,730.9,01.19,0.508
2014-09-24 04:10:00,1896E-3,5C000000,-0724,0826,12243,025.9,045.4,0.478,730.9,01.19,0.508
2014-09-24 04:11:00,1820E-3,5C000000,-0724,0825,12259,025.9,045.4,0.479,730.9,01.19,0.508
2014-09-24 04:12:00,1928E-3,5C000000,-0724,0826,12310,025.9,045.4,0.479,730.9,01.19,0.508
2014-09-24 04:13:00,1786E-3,5C000000,-0724,0825,12211,025.9,045.4,0.478,730.9,01.19,0.508
2014-09-24 04:14:00,1839E-3,5C000000,-0724,0826,12211,025.9,045.4,0.478,730.9,01.19,0.508
2014-09-24 04:15:00,1810E-3,5C000000,-0724,0826,12316,025.9,045.4,0.478,730.9,01.19,0.508
2014-09-24 04:16:00,1750E-3,5C000000,-0724,0825,12197,025.9,045.4,0.478,730.9,01.19,0.508
2014-09-24 04:17:00,1710E-3,5C000000,-0724,0826,12474,025.9,045.4,0.478,730.9,01.19,0.508
2014-09-24 04:18:00,1831E-3,5C000000,-0724,0825,12092,025.9,045.4,0.478,730.9,01.19,0.508
2014-09-24 04:19:00,1888E-3,5C000000,-0724,0826,11984,025.9,045.4,0.478,730.9,01.19,0.508
2014-09-24 04:20:00,1797E-3,5C000000,-0724,0825,12368,025.9,045.4,0.479,730.9,01.19,0.508